Time,TemperatureF,DewpointF,PressureIn,WindDirection,WindDirectionDegrees,WindSpeedMPH,WindSpeedGustMPH,Humidity,HourlyPrecipIn,Conditions,Clouds,dailyrainin,SoftwareType,DateUTC
2013-11-04 00:02:00,45.4,38.6,30.18,ESE,115,0.0,0.0,77,0.00,CLR,,0.00,WeatherDisplay:10.37,2013-11-04 06:02:00,
2013-11-04 00:07:00,45.2,38.7,30.18,ESE,115,0.0,0.0,78,0.00,CLR,,0.00,WeatherDisplay:10.37,2013-11-04 06:07:00,
2013-11-04 00:12:00,45.0,38.6,30.19,ESE,115,0.0,0.0,78,0.00,CLR,,0.00,WeatherDisplay:10.37,2013-11-04 06:12:00,
2013-11-04 00:17:00,44.7,38.6,30.19,ESE,115,0.0,0.0,79,0.00,CLR,,0.00,WeatherDisplay:10.37,2013-11-04 06:17:00,
2013-11-04 00:22:00,44.6,38.5,30.19,ESE,115,0.0,0.0,79,0.00,CLR,,0.00,WeatherDisplay:10.37,2013-11-04 06:22:00,
2013-11-04 00:27:00,44.3,38.5,30.20,ESE,115,0.0,0.0,80,0.00,CLR,,0.00,WeatherDisplay:10.37,2013-11-04 06:27:00,
2013-11-04 00:32:00,44.1,38.6,30.19,ESE,115,0.0,0.0,81,0.00,CLR,,0.00,WeatherDisplay:10.37,2013-11-04 06:32:00,
2013-11-04 00:37:00,44.0,38.9,30.19,ESE,115,0.0,0.0,82,0.00,CLR,,0.00,WeatherDisplay:10.37,2013-11-04 06:37:00,
2013-11-04 00:42:00,44.0,38.9,30.20,ESE,115,1.1,0.0,82,0.00,CLR,,0.00,WeatherDisplay:10.37,2013-11-04 06:42:00,
2013-11-04 00:47:00,44.0,38.9,30.20,ESE,115,0.0,0.0,82,0.00,CLR,,0.00,WeatherDisplay:10.37,2013-11-04 06:47:00,
2013-11-04 00:52:00,44.1,39.0,30.20,ESE,115,0.0,0.0,82,0.00,CLR,,0.00,WeatherDisplay:10.37,2013-11-04 06:52:00,
2013-11-04 00:57:00,44.2,39.1,30.20,ESE,115,0.0,0.0,82,0.00,CLR,,0.00,WeatherDisplay:10.37,2013-11-04 06:57:00,
2013-11-04 01:02:00,44.4,39.2,30.20,ESE,120,0.0,0.0,82,0.00,CLR,,0.00,WeatherDisplay:10.37,2013-11-04 07:02:00,
2013-11-04 01:07:00,44.6,39.1,30.20,ESE,120,0.0,0.0,81,0.00,CLR,,0.00,WeatherDisplay:10.37,2013-11-04 07:07:00,
2013-11-04 01:12:00,44.8,39.3,30.20,ESE,120,0.0,0.0,81,0.00,CLR,,0.00,WeatherDisplay:10.37,2013-11-04 07:12:00,
2013-11-04 01:17:00,44.9,39.1,30.20,ESE,120,0.0,0.0,80,0.00,CLR,,0.00,WeatherDisplay:10.37,2013-11-04 07:17:00,
2013-11-04 01:22:00,45.0,39.2,30.19,ESE,120,0.0,0.0,80,0.00,CLR,,0.00,WeatherDisplay:10.37,2013-11-04 07:22:00,
2013-11-04 01:27:00,45.0,39.2,30.20,ESE,120,0.0,0.0,80,0.00,CLR,,0.00,WeatherDisplay:10.37,2013-11-04 07:27:00,
2013-11-04 01:32:00,44.9,39.1,30.20,ESE,120,0.0,0.0,80,0.00,CLR,,0.00,WeatherDisplay:10.37,2013-11-04 07:32:00,
2013-11-04 01:37:00,44.9,39.1,30.20,ESE,120,0.0,0.0,80,0.00,CLR,,0.00,WeatherDisplay:10.37,2013-11-04 07:37:00,
2013-11-04 01:42:00,44.9,39.1,30.19,ESE,118,0.0,0.0,80,0.00,CLR,,0.00,WeatherDisplay:10.37,2013-11-04 07:42:00,
2013-11-04 01:47:00,45.0,39.2,30.19,ESE,117,0.0,0.0,80,0.00,CLR,,0.00,WeatherDisplay:10.37,2013-11-04 07:47:00,
2013-11-04 01:52:00,45.0,39.2,30.19,ESE,117,0.0,0.0,80,0.00,CLR,,0.00,WeatherDisplay:10.37,2013-11-04 07:52:00,
2013-11-04 01:57:00,45.0,39.2,30.18,ESE,111,0.0,0.0,80,0.00,CLR,,0.00,WeatherDisplay:10.37,2013-11-04 07:57:00,
2013-11-04 02:02:00,45.1,39.3,30.18,ESE,111,0.0,0.0,80,0.00,CLR,,0.00,WeatherDisplay:10.37,2013-11-04 08:02:00,
2013-11-04 02:07:00,45.1,39.3,30.18,East,101,0.0,0.0,80,0.00,CLR,,0.00,WeatherDisplay:10.37,2013-11-04 08:07:00,
2013-11-04 02:12:00,45.2,39.4,30.18,East,101,0.0,0.0,80,0.00,CLR,,0.00,WeatherDisplay:10.37,2013-11-04 08:12:00,
2013-11-04 02:17:00,45.2,39.4,30.18,East,95,0.0,0.0,80,0.00,CLR,,0.00,WeatherDisplay:10.37,2013-11-04 08:17:00,
2013-11-04 02:22:00,45.3,39.2,30.18,East,101,0.0,0.0,79,0.00,CLR,,0.00,WeatherDisplay:10.37,2013-11-04 08:22:00,
2013-11-04 02:27:00,45.3,39.2,30.17,ESE,116,1.1,1.1,79,0.00,CLR,,0.00,WeatherDisplay:10.37,2013-11-04 08:27:00,
2013-11-04 02:32:00,45.3,39.2,30.18,ESE,115,0.0,0.0,79,0.00,CLR,,0.00,WeatherDisplay:10.37,2013-11-04 08:32:00,
2013-11-04 02:37:00,45.4,39.3,30.18,ESE,115,0.0,0.0,79,0.00,CLR,,0.00,WeatherDisplay:10.37,2013-11-04 08:37:00,
2013-11-04 02:42:00,45.4,39.3,30.17,East,97,0.0,0.0,79,0.00,CLR,,0.00,WeatherDisplay:10.37,2013-11-04 08:42:00,
2013-11-04 02:47:00,45.4,39.3,30.17,ESE,117,0.0,0.0,79,0.00,CLR,,0.00,WeatherDisplay:10.37,2013-11-04 08:47:00,
2013-11-04 02:52:00,45.3,39.2,30.17,ESE,111,1.1,1.1,79,0.00,CLR,,0.00,WeatherDisplay:10.37,2013-11-04 08:52:00,
2013-11-04 02:57:00,45.3,39.2,30.17,ESE,109,0.0,0.0,79,0.00,CLR,,0.00,WeatherDisplay:10.37,2013-11-04 08:57:00,
2013-11-04 03:02:00,45.3,39.2,30.17,ESE,109,0.0,0.0,79,0.00,CLR,,0.00,WeatherDisplay:10.37,2013-11-04 09:02:00,
2013-11-04 03:07:00,45.2,39.4,30.17,ESE,113,1.0,1.0,80,0.00,CLR,,0.00,WeatherDisplay:10.37,2013-11-04 09:07:00,
2013-11-04 03:12:00,45.2,39.1,30.16,ESE,108,3.5,3.5,79,0.00,CLR,,0.00,WeatherDisplay:10.37,2013-11-04 09:12:00,
2013-11-04 03:17:00,45.2,39.1,30.17,East,101,1.1,0.0,79,0.00,CLR,,0.00,WeatherDisplay:10.37,2013-11-04 09:17:00,
2013-11-04 03:22:00,45.2,39.1,30.16,East,94,0.0,0.0,79,0.00,CLR,,0.00,WeatherDisplay:10.37,2013-11-04 09:22:00,
2013-11-04 03:27:00,45.2,39.1,30.17,East,94,0.0,0.0,79,0.00,CLR,,0.00,WeatherDisplay:10.37,2013-11-04 09:27:00,
2013-11-04 03:32:00,45.2,39.1,30.17,East,87,0.0,0.1,79,0.00,CLR,,0.00,WeatherDisplay:10.37,2013-11-04 09:32:00,
2013-11-04 03:37:00,45.2,39.1,30.17,East,88,0.0,0.0,79,0.00,CLR,,0.00,WeatherDisplay:10.37,2013-11-04 09:37:00,
2013-11-04 03:42:00,45.2,39.1,30.17,East,88,0.0,0.0,79,0.00,CLR,,0.00,WeatherDisplay:10.37,2013-11-04 09:42:00,
2013-11-04 03:47:00,45.1,39.3,30.17,East,88,0.0,0.0,80,0.00,CLR,,0.00,WeatherDisplay:10.37,2013-11-04 09:47:00,
2013-11-04 03:52:00,45.0,39.2,30.18,ESE,103,1.0,0.0,80,0.00,CLR,,0.00,WeatherDisplay:10.37,2013-11-04 09:52:00,
2013-11-04 03:57:00,45.0,39.2,30.18,East,101,0.0,0.0,80,0.00,CLR,,0.00,WeatherDisplay:10.37,2013-11-04 09:57:00,
2013-11-04 04:02:00,45.0,39.2,30.18,ENE,67,0.0,0.0,80,0.00,CLR,,0.00,WeatherDisplay:10.37,2013-11-04 10:02:00,
2013-11-04 04:07:00,45.0,39.2,30.18,East,86,1.1,0.0,80,0.00,CLR,,0.00,WeatherDisplay:10.37,2013-11-04 10:07:00,
2013-11-04 04:12:00,45.1,39.3,30.17,ESE,102,1.1,0.0,80,0.00,CLR,,0.00,WeatherDisplay:10.37,2013-11-04 10:12:00,
2013-11-04 04:17:00,45.2,39.4,30.17,East,101,0.0,0.0,80,0.00,CLR,,0.00,WeatherDisplay:10.37,2013-11-04 10:17:00,
2013-11-04 04:22:00,45.3,39.5,30.17,ESE,109,0.0,0.9,80,0.00,CLR,,0.00,WeatherDisplay:10.37,2013-11-04 10:22:00,
2013-11-04 04:27:00,45.5,39.7,30.17,East,101,0.0,0.0,80,0.00,CLR,,0.00,WeatherDisplay:10.37,2013-11-04 10:27:00,
2013-11-04 04:32:00,45.6,39.5,30.17,ESE,106,2.3,2.3,79,0.00,CLR,,0.00,WeatherDisplay:10.37,2013-11-04 10:32:00,
2013-11-04 04:37:00,45.8,39.7,30.17,East,97,0.0,0.0,79,0.00,CLR,,0.00,WeatherDisplay:10.37,2013-11-04 10:37:00,
2013-11-04 04:42:00,45.9,39.8,30.17,ESE,105,1.1,1.1,79,0.00,CLR,,0.00,WeatherDisplay:10.37,2013-11-04 10:42:00,
2013-11-04 04:47:00,46.0,39.5,30.17,East,84,2.3,2.3,78,0.00,CLR,,0.00,WeatherDisplay:10.37,2013-11-04 10:47:00,
2013-11-04 04:53:00,46.1,39.6,30.18,East,88,1.1,1.1,78,0.00,CLR,,0.00,WeatherDisplay:10.37,2013-11-04 10:53:00,
2013-11-04 04:58:00,46.1,39.6,30.19,ESE,107,0.0,0.4,78,0.00,CLR,,0.00,WeatherDisplay:10.37,2013-11-04 10:58:00,
2013-11-04 05:03:00,46.1,39.6,30.19,East,88,3.0,3.0,78,0.00,CLR,,0.00,WeatherDisplay:10.37,2013-11-04 11:03:00,
2013-11-04 05:08:00,46.2,39.7,30.19,ESE,111,0.0,0.7,78,0.00,CLR,,0.00,WeatherDisplay:10.37,2013-11-04 11:08:00,
2013-11-04 05:13:00,46.2,39.7,30.20,ESE,117,1.1,1.1,78,0.00,CLR,,0.00,WeatherDisplay:10.37,2013-11-04 11:13:00,
2013-11-04 05:14:00,46.2,39.7,30.20,ESE,110,1.1,1.1,78,0.00,CLR,,0.00,WeatherDisplay:10.37,2013-11-04 11:14:00,
2013-11-04 05:19:00,46.2,39.4,30.19,East,94,1.1,1.1,77,0.00,CLR,,0.00,WeatherDisplay:10.37,2013-11-04 11:19:00,
2013-11-04 05:22:00,46.2,39.4,30.20,East,97,3.5,3.5,77,0.00,CLR,,0.00,WeatherDisplay:10.37,2013-11-04 11:22:00,
2013-11-04 05:27:00,46.2,39.4,30.20,East,84,2.3,2.3,77,0.00,CLR,,0.00,WeatherDisplay:10.37,2013-11-04 11:27:00,
2013-11-04 05:32:00,46.2,39.4,30.20,East,97,1.1,1.1,77,0.00,CLR,,0.00,WeatherDisplay:10.37,2013-11-04 11:32:00,
2013-11-04 05:37:00,46.2,39.4,30.19,East,92,0.0,0.0,77,0.00,CLR,,0.00,WeatherDisplay:10.37,2013-11-04 11:37:00,
2013-11-04 05:42:00,46.1,39.3,30.19,East,101,2.3,2.3,77,0.00,CLR,,0.00,WeatherDisplay:10.37,2013-11-04 11:42:00,
2013-11-04 05:47:00,46.1,39.6,30.19,ENE,76,3.5,3.5,78,0.00,CLR,,0.00,WeatherDisplay:10.37,2013-11-04 11:47:00,
2013-11-04 05:52:00,46.1,39.6,30.19,ESE,112,0.0,0.0,78,0.00,CLR,,0.00,WeatherDisplay:10.37,2013-11-04 11:52:00,
2013-11-04 05:57:00,46.1,39.6,30.19,ESE,115,0.0,0.0,78,0.00,CLR,,0.00,WeatherDisplay:10.37,2013-11-04 11:57:00,
2013-11-04 06:02:00,46.0,39.5,30.18,East,95,2.3,2.3,78,0.00,CLR,,0.00,WeatherDisplay:10.37,2013-11-04 12:02:00,
2013-11-04 06:07:00,46.0,39.5,30.19,ESE,105,2.3,2.3,78,0.00,CLR,,0.00,WeatherDisplay:10.37,2013-11-04 12:07:00,
2013-11-04 06:12:00,46.1,39.6,30.18,East,87,2.0,2.0,78,0.00,CLR,,0.00,WeatherDisplay:10.37,2013-11-04 12:12:00,
2013-11-04 06:17:00,46.1,39.6,30.20,East,96,3.5,3.5,78,0.00,CLR,,0.00,WeatherDisplay:10.37,2013-11-04 12:17:00,
2013-11-04 06:22:00,46.1,39.6,30.20,East,86,1.1,0.0,78,0.00,CLR,,0.00,WeatherDisplay:10.37,2013-11-04 12:22:00,
2013-11-04 06:27:00,46.1,39.6,30.21,East,90,0.0,0.0,78,0.00,CLR,,0.00,WeatherDisplay:10.37,2013-11-04 12:27:00,
2013-11-04 06:32:00,46.2,39.7,30.21,East,92,1.1,0.0,78,0.00,CLR,,0.00,WeatherDisplay:10.37,2013-11-04 12:32:00,
2013-11-04 06:37:00,46.2,39.7,30.20,ESE,119,3.0,3.0,78,0.00,CLR,,0.00,WeatherDisplay:10.37,2013-11-04 12:37:00,
2013-11-04 06:42:00,46.3,39.5,30.20,East,84,2.3,2.3,77,0.00,CLR,,0.00,WeatherDisplay:10.37,2013-11-04 12:42:00,
2013-11-04 06:47:00,46.3,39.5,30.20,ESE,103,1.1,0.0,77,0.00,CLR,,0.00,WeatherDisplay:10.37,2013-11-04 12:47:00,
2013-11-04 06:52:00,46.4,39.6,30.20,East,85,2.3,2.3,77,0.00,CLR,,0.00,WeatherDisplay:10.37,2013-11-04 12:52:00,
2013-11-04 06:57:00,46.5,39.7,30.20,ESE,120,0.0,0.0,77,0.00,CLR,,0.00,WeatherDisplay:10.37,2013-11-04 12:57:00,
2013-11-04 07:02:00,46.6,39.8,30.20,ESE,102,1.1,1.1,77,0.00,CLR,,0.00,WeatherDisplay:10.37,2013-11-04 13:02:00,
2013-11-04 07:07:00,46.8,40.0,30.20,East,86,0.0,0.0,77,0.00,CLR,,0.00,WeatherDisplay:10.37,2013-11-04 13:07:00,
2013-11-04 07:12:00,46.9,40.1,30.21,East,82,1.1,1.1,77,0.00,CLR,,0.00,WeatherDisplay:10.37,2013-11-04 13:12:00,
2013-11-04 07:17:00,47.1,39.9,30.20,East,88,1.1,0.0,76,0.00,CLR,,0.00,WeatherDisplay:10.37,2013-11-04 13:17:00,
2013-11-04 07:22:00,47.3,40.1,30.21,ENE,63,0.0,0.0,76,0.00,CLR,,0.00,WeatherDisplay:10.37,2013-11-04 13:22:00,
2013-11-04 07:27:00,47.6,40.4,30.21,East,84,1.0,1.0,76,0.00,CLR,,0.00,WeatherDisplay:10.37,2013-11-04 13:27:00,
2013-11-04 07:32:00,47.8,40.3,30.21,East,80,2.0,2.0,75,0.00,CLR,,0.00,WeatherDisplay:10.37,2013-11-04 13:32:00,
2013-11-04 07:37:00,48.1,40.2,30.21,ESE,105,1.1,0.0,74,0.00,CLR,,0.00,WeatherDisplay:10.37,2013-11-04 13:37:00,
2013-11-04 07:42:00,48.3,40.0,30.22,SE,132,2.3,2.3,73,0.00,CLR,,0.00,WeatherDisplay:10.37,2013-11-04 13:42:00,
2013-11-04 07:47:00,48.6,40.3,30.23,East,94,0.0,0.0,73,0.00,CLR,,0.00,WeatherDisplay:10.37,2013-11-04 13:47:00,
2013-11-04 07:52:00,48.7,40.4,30.23,NE,51,0.0,0.1,73,0.00,CLR,,0.00,WeatherDisplay:10.37,2013-11-04 13:52:00,
2013-11-04 07:57:00,48.9,40.6,30.24,ESE,113,1.1,1.1,73,0.00,CLR,,0.00,WeatherDisplay:10.37,2013-11-04 13:57:00,
2013-11-04 08:02:00,49.1,40.8,30.24,East,82,1.1,1.1,73,0.00,CLR,,0.00,WeatherDisplay:10.37,2013-11-04 14:02:00,
2013-11-04 08:07:00,49.3,40.7,30.25,ENE,66,1.1,0.0,72,0.00,CLR,,0.00,WeatherDisplay:10.37,2013-11-04 14:07:00,
2013-11-04 08:12:00,49.5,40.5,30.25,ENE,72,1.1,1.1,71,0.00,CLR,,0.00,WeatherDisplay:10.37,2013-11-04 14:12:00,
2013-11-04 08:17:00,49.7,40.7,30.25,East,101,0.0,0.0,71,0.00,CLR,,0.00,WeatherDisplay:10.37,2013-11-04 14:17:00,
2013-11-04 08:22:00,49.9,40.9,30.24,NE,38,3.5,3.5,71,0.00,CLR,,0.00,WeatherDisplay:10.37,2013-11-04 14:22:00,
2013-11-04 08:27:00,50.1,41.1,30.24,East,82,1.1,1.1,71,0.00,CLR,,0.00,WeatherDisplay:10.37,2013-11-04 14:27:00,
2013-11-04 08:32:00,50.2,41.2,30.24,ESE,105,3.5,3.5,71,0.00,CLR,,0.00,WeatherDisplay:10.37,2013-11-04 14:32:00,
2013-11-04 08:37:00,50.3,40.9,30.24,East,87,3.5,3.5,70,0.00,CLR,,0.00,WeatherDisplay:10.37,2013-11-04 14:37:00,
2013-11-04 08:42:00,50.5,41.1,30.24,East,87,3.5,0.0,70,0.00,CLR,,0.00,WeatherDisplay:10.37,2013-11-04 14:42:00,
2013-11-04 08:47:00,50.6,41.5,30.24,ENE,73,1.1,1.1,71,0.00,CLR,,0.00,WeatherDisplay:10.37,2013-11-04 14:47:00,
2013-11-04 08:52:00,50.8,41.4,30.23,ESE,109,6.9,6.9,70,0.00,CLR,,0.00,WeatherDisplay:10.37,2013-11-04 14:52:00,
2013-11-04 08:57:00,50.9,41.5,30.23,ESE,106,5.8,5.8,70,0.00,CLR,,0.00,WeatherDisplay:10.37,2013-11-04 14:57:00,
2013-11-04 09:02:00,51.1,41.7,30.23,ESE,109,0.0,0.0,70,0.00,CLR,,0.00,WeatherDisplay:10.37,2013-11-04 15:02:00,
2013-11-04 09:07:00,51.3,41.8,30.23,ESE,121,3.5,3.5,70,0.00,CLR,,0.00,WeatherDisplay:10.37,2013-11-04 15:07:00,
2013-11-04 09:12:00,51.5,42.0,30.22,ESE,118,3.5,3.5,70,0.00,CLR,,0.00,WeatherDisplay:10.37,2013-11-04 15:12:00,
2013-11-04 09:17:00,51.7,42.2,30.21,East,95,3.5,3.5,70,0.00,CLR,,0.00,WeatherDisplay:10.37,2013-11-04 15:17:00,
2013-11-04 09:22:00,51.9,42.4,30.22,SE,129,1.1,1.1,70,0.00,CLR,,0.00,WeatherDisplay:10.37,2013-11-04 15:22:00,
2013-11-04 09:27:00,52.2,42.3,30.21,East,100,3.5,3.5,69,0.00,CLR,,0.00,WeatherDisplay:10.37,2013-11-04 15:27:00,
2013-11-04 09:32:00,52.4,42.5,30.21,ESE,105,3.5,3.5,69,0.00,CLR,,0.00,WeatherDisplay:10.37,2013-11-04 15:32:00,
2013-11-04 09:37:00,52.6,42.3,30.21,ENE,67,2.3,2.3,68,0.00,CLR,,0.00,WeatherDisplay:10.37,2013-11-04 15:37:00,
2013-11-04 09:42:00,52.7,42.4,30.21,ESE,116,1.1,1.1,68,0.00,CLR,,0.00,WeatherDisplay:10.37,2013-11-04 15:42:00,
2013-11-04 09:47:00,52.9,42.6,30.22,NNW,344,1.1,1.1,68,0.00,CLR,,0.00,WeatherDisplay:10.37,2013-11-04 15:47:00,
2013-11-04 09:52:00,53.3,43.0,30.23,ESE,111,1.1,1.1,68,0.00,CLR,,0.00,WeatherDisplay:10.37,2013-11-04 15:52:00,
2013-11-04 09:57:00,53.5,42.4,30.23,ENE,71,1.1,1.1,66,0.00,CLR,,0.00,WeatherDisplay:10.37,2013-11-04 15:57:00,
2013-11-04 10:02:00,53.8,42.7,30.22,ENE,70,3.5,3.5,66,0.00,CLR,,0.00,WeatherDisplay:10.37,2013-11-04 16:02:00,
2013-11-04 10:07:00,54.0,42.9,30.22,East,90,4.6,4.6,66,0.00,CLR,,0.00,WeatherDisplay:10.37,2013-11-04 16:07:00,
2013-11-04 10:12:00,54.2,43.1,30.22,East,83,5.0,5.0,66,0.00,CLR,,0.00,WeatherDisplay:10.37,2013-11-04 16:12:00,
2013-11-04 10:17:00,54.5,43.8,30.23,NNE,28,2.3,2.3,67,0.00,CLR,,0.00,WeatherDisplay:10.37,2013-11-04 16:17:00,
2013-11-04 10:22:00,54.8,43.3,30.22,ESE,121,2.3,2.3,65,0.00,CLR,,0.00,WeatherDisplay:10.37,2013-11-04 16:22:00,
2013-11-04 10:27:00,55.1,43.5,30.22,SE,146,3.5,3.5,65,0.00,CLR,,0.00,WeatherDisplay:10.37,2013-11-04 16:27:00,
2013-11-04 10:32:00,55.3,43.7,30.23,WSW,254,3.5,3.5,65,0.00,CLR,,0.00,WeatherDisplay:10.37,2013-11-04 16:32:00,
2013-11-04 10:37:00,55.6,44.4,30.24,WSW,243,3.5,3.5,66,0.00,CLR,,0.00,WeatherDisplay:10.37,2013-11-04 16:37:00,
2013-11-04 10:42:00,55.7,44.1,30.23,NNW,346,2.3,2.3,65,0.00,CLR,,0.00,WeatherDisplay:10.37,2013-11-04 16:42:00,
2013-11-04 10:47:00,55.9,44.3,30.23,SSW,196,0.0,0.6,65,0.00,CLR,,0.00,WeatherDisplay:10.37,2013-11-04 16:47:00,
2013-11-04 10:52:00,56.1,44.1,30.23,East,89,3.0,3.0,64,0.00,CLR,,0.00,WeatherDisplay:10.37,2013-11-04 16:52:00,
2013-11-04 10:58:00,56.4,44.4,30.22,SSE,148,1.1,1.1,64,0.00,CLR,,0.00,WeatherDisplay:10.37,2013-11-04 16:58:00,
2013-11-04 11:03:00,56.6,43.7,30.21,ENE,61,6.9,0.0,62,0.00,CLR,,0.00,WeatherDisplay:10.37,2013-11-04 17:03:00,
2013-11-04 11:08:00,56.9,44.8,30.22,WSW,239,3.5,3.5,64,0.00,CLR,,0.00,WeatherDisplay:10.37,2013-11-04 17:08:00,
2013-11-04 11:13:00,57.2,44.3,30.22,NE,45,3.5,3.5,62,0.00,CLR,,0.00,WeatherDisplay:10.37,2013-11-04 17:13:00,
2013-11-04 11:18:00,57.4,44.5,30.22,SSW,202,1.1,1.1,62,0.00,CLR,,0.00,WeatherDisplay:10.37,2013-11-04 17:18:00,
2013-11-04 11:23:00,57.7,44.8,30.21,SSW,192,3.5,3.5,62,0.00,CLR,,0.00,WeatherDisplay:10.37,2013-11-04 17:23:00,
2013-11-04 11:28:00,57.8,44.0,30.21,SW,234,4.6,4.6,60,0.00,CLR,,0.00,WeatherDisplay:10.37,2013-11-04 17:28:00,
2013-11-04 11:33:00,58.0,44.6,30.22,WNW,289,2.3,0.0,61,0.00,CLR,,0.00,WeatherDisplay:10.37,2013-11-04 17:33:00,
2013-11-04 11:38:00,58.1,44.3,30.21,SE,132,2.3,2.3,60,0.00,CLR,,0.00,WeatherDisplay:10.37,2013-11-04 17:38:00,
2013-11-04 11:43:00,58.2,44.4,30.21,ENE,61,0.0,0.0,60,0.00,CLR,,0.00,WeatherDisplay:10.37,2013-11-04 17:43:00,
2013-11-04 11:48:00,58.2,43.9,30.20,ESE,117,4.6,4.6,59,0.00,CLR,,0.00,WeatherDisplay:10.37,2013-11-04 17:48:00,
2013-11-04 11:53:00,58.2,44.4,30.20,WSW,242,2.3,2.3,60,0.00,CLR,,0.00,WeatherDisplay:10.37,2013-11-04 17:53:00,
2013-11-04 11:58:00,58.2,44.4,30.20,SSW,192,8.1,8.1,60,0.00,CLR,,0.00,WeatherDisplay:10.37,2013-11-04 17:58:00,
2013-11-04 12:03:00,58.2,44.8,30.21,ENE,62,0.0,0.0,61,0.00,CLR,,0.00,WeatherDisplay:10.37,2013-11-04 18:03:00,
2013-11-04 12:08:00,58.3,44.9,30.20,SSW,210,3.5,3.5,61,0.00,CLR,,0.00,WeatherDisplay:10.37,2013-11-04 18:08:00,
2013-11-04 12:13:00,58.4,45.0,30.20,NW,313,1.1,0.0,61,0.00,CLR,,0.00,WeatherDisplay:10.37,2013-11-04 18:13:00,
2013-11-04 12:18:00,58.5,44.7,30.19,East,83,0.0,0.1,60,0.00,CLR,,0.00,WeatherDisplay:10.37,2013-11-04 18:18:00,
2013-11-04 12:23:00,58.5,45.1,30.20,East,95,2.0,2.0,61,0.00,CLR,,0.00,WeatherDisplay:10.37,2013-11-04 18:23:00,
2013-11-04 12:28:00,58.4,45.0,30.18,SE,126,4.6,4.6,61,0.00,CLR,,0.00,WeatherDisplay:10.37,2013-11-04 18:28:00,
2013-11-04 12:33:00,58.4,45.0,30.20,SE,136,0.0,0.0,61,0.00,CLR,,0.00,WeatherDisplay:10.37,2013-11-04 18:33:00,
2013-11-04 12:38:00,58.4,45.0,30.19,West,266,0.0,0.0,61,0.00,CLR,,0.00,WeatherDisplay:10.37,2013-11-04 18:38:00,
2013-11-04 12:43:00,58.4,44.6,30.20,SE,128,1.1,0.0,60,0.00,CLR,,0.00,WeatherDisplay:10.37,2013-11-04 18:43:00,
2013-11-04 12:48:00,58.5,45.1,30.20,SW,217,2.3,0.0,61,0.00,CLR,,0.00,WeatherDisplay:10.37,2013-11-04 18:48:00,
2013-11-04 12:53:00,58.6,44.8,30.19,SE,126,2.3,0.0,60,0.00,CLR,,0.00,WeatherDisplay:10.37,2013-11-04 18:53:00,
2013-11-04 12:58:00,58.7,45.3,30.19,East,96,0.0,0.0,61,0.00,CLR,,0.00,WeatherDisplay:10.37,2013-11-04 18:58:00,
2013-11-04 13:03:00,58.8,44.9,30.18,East,82,1.1,0.0,60,0.00,CLR,,0.00,WeatherDisplay:10.37,2013-11-04 19:03:00,
2013-11-04 13:08:00,58.9,45.5,30.18,East,82,0.0,0.0,61,0.00,CLR,,0.00,WeatherDisplay:10.37,2013-11-04 19:08:00,
2013-11-04 13:13:00,59.0,45.1,30.18,East,84,0.0,0.0,60,0.00,CLR,,0.00,WeatherDisplay:10.37,2013-11-04 19:13:00,
2013-11-04 13:18:00,59.0,45.6,30.18,SE,124,4.6,4.6,61,0.00,CLR,,0.00,WeatherDisplay:10.37,2013-11-04 19:18:00,
2013-11-04 13:23:00,59.0,45.1,30.18,ENE,69,0.0,0.0,60,0.00,CLR,,0.00,WeatherDisplay:10.37,2013-11-04 19:23:00,
2013-11-04 13:28:00,59.1,45.7,30.18,NE,53,1.1,1.1,61,0.00,CLR,,0.00,WeatherDisplay:10.37,2013-11-04 19:28:00,
2013-11-04 13:33:00,59.2,45.8,30.19,East,81,1.0,1.0,61,0.00,CLR,,0.00,WeatherDisplay:10.37,2013-11-04 19:33:00,
2013-11-04 13:38:00,59.2,45.3,30.18,SSW,202,2.3,2.3,60,0.00,CLR,,0.00,WeatherDisplay:10.37,2013-11-04 19:38:00,
2013-11-04 13:43:00,59.3,45.4,30.18,ESE,117,2.3,2.3,60,0.00,CLR,,0.00,WeatherDisplay:10.37,2013-11-04 19:43:00,
2013-11-04 13:48:00,59.4,45.5,30.18,South,169,0.0,0.0,60,0.00,CLR,,0.00,WeatherDisplay:10.37,2013-11-04 19:48:00,
2013-11-04 13:53:00,59.4,45.1,30.19,ESE,109,0.0,0.0,59,0.00,CLR,,0.00,WeatherDisplay:10.37,2013-11-04 19:53:00,
2013-11-04 13:58:00,59.4,44.6,30.19,SE,125,1.1,0.0,58,0.00,CLR,,0.00,WeatherDisplay:10.37,2013-11-04 19:58:00,
2013-11-04 14:03:00,59.5,45.2,30.19,NNE,33,1.0,0.0,59,0.00,CLR,,0.00,WeatherDisplay:10.37,2013-11-04 20:03:00,
2013-11-04 14:08:00,59.5,44.7,30.19,East,95,3.5,3.5,58,0.00,CLR,,0.00,WeatherDisplay:10.37,2013-11-04 20:08:00,
2013-11-04 14:13:00,59.5,44.7,30.19,ESE,116,0.0,0.0,58,0.00,CLR,,0.00,WeatherDisplay:10.37,2013-11-04 20:13:00,
2013-11-04 14:18:00,59.5,45.2,30.19,SW,231,2.3,2.3,59,0.00,CLR,,0.00,WeatherDisplay:10.37,2013-11-04 20:18:00,
2013-11-04 14:23:00,59.4,44.2,30.19,NE,44,0.0,0.0,57,0.00,CLR,,0.00,WeatherDisplay:10.37,2013-11-04 20:23:00,
2013-11-04 14:28:00,59.3,44.5,30.18,NE,44,0.0,0.0,58,0.00,CLR,,0.00,WeatherDisplay:10.37,2013-11-04 20:28:00,
2013-11-04 14:33:00,59.3,44.5,30.18,East,81,3.5,0.0,58,0.00,CLR,,0.00,WeatherDisplay:10.37,2013-11-04 20:33:00,
2013-11-04 14:38:00,59.2,44.9,30.19,SSE,147,0.0,0.0,59,0.00,CLR,,0.00,WeatherDisplay:10.37,2013-11-04 20:38:00,
2013-11-04 14:43:00,59.1,44.8,30.19,SSW,203,0.0,0.0,59,0.00,CLR,,0.00,WeatherDisplay:10.37,2013-11-04 20:43:00,
2013-11-04 14:48:00,59.0,45.6,30.20,SW,215,2.3,2.3,61,0.00,CLR,,0.00,WeatherDisplay:10.37,2013-11-04 20:48:00,
2013-11-04 14:53:00,58.8,45.4,30.20,SSW,209,0.0,0.1,61,0.00,CLR,,0.00,WeatherDisplay:10.37,2013-11-04 20:53:00,
2013-11-04 14:58:00,58.6,45.6,30.21,SSW,207,0.0,0.0,62,0.00,CLR,,0.00,WeatherDisplay:10.37,2013-11-04 20:58:00,
2013-11-04 15:03:00,58.4,45.8,30.21,SSW,207,0.0,0.0,63,0.00,CLR,,0.00,WeatherDisplay:10.37,2013-11-04 21:03:00,
2013-11-04 15:08:00,58.2,46.5,30.21,WSW,244,1.1,0.0,65,0.00,CLR,,0.00,WeatherDisplay:10.37,2013-11-04 21:08:00,
2013-11-04 15:13:00,57.9,47.0,30.21,WSW,244,0.0,0.0,67,0.00,CLR,,0.00,WeatherDisplay:10.37,2013-11-04 21:13:00,
2013-11-04 15:18:00,57.5,46.6,30.21,SW,215,1.1,0.0,67,0.00,CLR,,0.01,WeatherDisplay:10.37,2013-11-04 21:18:00,
2013-11-04 15:23:00,57.2,47.5,30.21,WSW,246,0.0,0.0,70,0.01,RA,,0.01,WeatherDisplay:10.37,2013-11-04 21:23:00,
2013-11-04 15:28:00,56.9,47.2,30.21,WSW,246,0.0,0.0,70,0.01,RA,,0.01,WeatherDisplay:10.37,2013-11-04 21:28:00,
2013-11-04 15:33:00,56.6,47.3,30.21,ESE,106,0.0,0.0,71,0.01,CLR,,0.01,WeatherDisplay:10.37,2013-11-04 21:33:00,
2013-11-04 15:38:00,56.4,47.9,30.21,ESE,106,0.0,0.0,73,0.01,CLR,,0.01,WeatherDisplay:10.37,2013-11-04 21:38:00,
2013-11-04 15:43:00,56.1,47.9,30.20,ESE,106,0.0,0.0,74,0.01,CLR,,0.01,WeatherDisplay:10.37,2013-11-04 21:43:00,
2013-11-04 15:49:00,55.8,48.3,30.20,ESE,106,0.0,0.0,76,0.01,CLR,,0.01,WeatherDisplay:10.37,2013-11-04 21:49:00,
2013-11-04 15:54:00,55.4,48.3,30.20,ESE,106,0.0,0.0,77,0.01,CLR,,0.01,WeatherDisplay:10.37,2013-11-04 21:54:00,
2013-11-04 15:59:00,55.1,48.4,30.20,ESE,106,0.0,0.0,78,0.01,CLR,,0.01,WeatherDisplay:10.37,2013-11-04 21:59:00,
2013-11-04 16:04:00,54.9,48.8,30.20,ESE,106,0.0,0.0,80,0.01,CLR,,0.01,WeatherDisplay:10.37,2013-11-04 22:04:00,
2013-11-04 16:09:00,54.7,49.3,30.20,ESE,106,0.0,0.0,82,0.01,CLR,,0.01,WeatherDisplay:10.37,2013-11-04 22:09:00,
2013-11-04 16:14:00,54.4,49.0,30.21,ESE,106,0.0,0.0,82,0.01,CLR,,0.01,WeatherDisplay:10.37,2013-11-04 22:14:00,
2013-11-04 16:19:00,54.1,49.1,30.21,ESE,106,0.0,0.0,83,0.01,CLR,,0.01,WeatherDisplay:10.37,2013-11-04 22:19:00,
2013-11-04 16:24:00,53.9,48.9,30.21,ESE,106,0.0,0.0,83,0.00,CLR,,0.01,WeatherDisplay:10.37,2013-11-04 22:24:00,
2013-11-04 16:29:00,53.7,49.0,30.21,ESE,106,0.0,0.0,84,0.00,CLR,,0.01,WeatherDisplay:10.37,2013-11-04 22:29:00,
2013-11-04 16:34:00,53.6,49.2,30.21,ESE,106,0.0,0.0,85,0.00,CLR,,0.01,WeatherDisplay:10.37,2013-11-04 22:34:00,
2013-11-04 16:39:00,53.5,49.1,30.21,ESE,106,0.0,0.0,85,0.00,CLR,,0.01,WeatherDisplay:10.37,2013-11-04 22:39:00,
2013-11-04 16:44:00,53.3,49.2,30.21,ESE,106,0.0,0.0,86,0.00,CLR,,0.01,WeatherDisplay:10.37,2013-11-04 22:44:00,
2013-11-04 16:49:00,53.2,49.1,30.21,ESE,106,0.0,0.0,86,0.00,CLR,,0.01,WeatherDisplay:10.37,2013-11-04 22:49:00,
2013-11-04 16:54:00,53.1,49.0,30.21,ESE,106,0.0,0.0,86,0.00,CLR,,0.01,WeatherDisplay:10.37,2013-11-04 22:54:00,
2013-11-04 16:59:00,52.9,49.1,30.22,ESE,107,0.0,0.0,87,0.00,CLR,,0.01,WeatherDisplay:10.37,2013-11-04 22:59:00,
2013-11-04 17:04:00,52.8,49.0,30.22,ESE,106,0.0,0.0,87,0.00,CLR,,0.01,WeatherDisplay:10.37,2013-11-04 23:04:00,
2013-11-04 17:09:00,52.6,48.8,30.21,ESE,106,0.0,0.0,87,0.00,CLR,,0.01,WeatherDisplay:10.37,2013-11-04 23:09:00,
2013-11-04 17:14:00,52.5,48.7,30.21,ESE,107,0.0,0.0,87,0.00,CLR,,0.01,WeatherDisplay:10.37,2013-11-04 23:14:00,
2013-11-04 17:19:00,52.5,49.0,30.21,ESE,107,0.0,0.0,88,0.00,CLR,,0.01,WeatherDisplay:10.37,2013-11-04 23:19:00,
2013-11-04 17:24:00,52.5,49.0,30.21,ESE,106,0.0,0.0,88,0.00,CLR,,0.01,WeatherDisplay:10.37,2013-11-04 23:24:00,
2013-11-04 17:29:00,52.5,49.0,30.21,ESE,106,0.0,0.0,88,0.00,CLR,,0.01,WeatherDisplay:10.37,2013-11-04 23:29:00,
2013-11-04 17:34:00,52.4,49.3,30.21,ESE,106,0.0,0.0,89,0.00,CLR,,0.01,WeatherDisplay:10.37,2013-11-04 23:34:00,
2013-11-04 17:39:00,52.3,49.2,30.21,ESE,106,0.0,0.0,89,0.00,CLR,,0.01,WeatherDisplay:10.37,2013-11-04 23:39:00,
2013-11-04 17:44:00,52.3,49.2,30.21,ESE,106,0.0,0.0,89,0.00,CLR,,0.01,WeatherDisplay:10.37,2013-11-04 23:44:00,
2013-11-04 17:49:00,52.2,49.4,30.22,ESE,107,0.0,0.0,90,0.00,CLR,,0.01,WeatherDisplay:10.37,2013-11-04 23:49:00,
2013-11-04 17:54:00,52.1,49.3,30.21,ESE,106,0.0,0.0,90,0.00,CLR,,0.01,WeatherDisplay:10.37,2013-11-04 23:54:00,
2013-11-04 17:59:00,52.0,49.2,30.22,ESE,107,0.0,0.0,90,0.00,CLR,,0.01,WeatherDisplay:10.37,2013-11-04 23:59:00,
2013-11-04 18:04:00,51.9,49.1,30.22,ESE,106,0.0,0.0,90,0.00,CLR,,0.01,WeatherDisplay:10.37,2013-11-05 00:04:00,
2013-11-04 18:09:00,51.9,49.4,30.22,ESE,106,0.0,0.0,91,0.00,CLR,,0.01,WeatherDisplay:10.37,2013-11-05 00:09:00,
2013-11-04 18:14:00,51.8,49.3,30.22,ESE,107,0.0,0.0,91,0.00,CLR,,0.01,WeatherDisplay:10.37,2013-11-05 00:14:00,
2013-11-04 18:19:00,51.8,49.3,30.22,ESE,107,0.0,0.0,91,0.00,CLR,,0.01,WeatherDisplay:10.37,2013-11-05 00:19:00,
2013-11-04 18:24:00,51.7,49.2,30.22,ESE,106,0.0,0.0,91,0.00,CLR,,0.01,WeatherDisplay:10.37,2013-11-05 00:24:00,
2013-11-04 18:29:00,51.7,49.2,30.23,ESE,107,0.0,0.0,91,0.00,CLR,,0.01,WeatherDisplay:10.37,2013-11-05 00:29:00,
2013-11-04 18:34:00,51.6,49.4,30.23,ESE,107,0.0,0.0,92,0.00,CLR,,0.01,WeatherDisplay:10.37,2013-11-05 00:34:00,
2013-11-04 18:39:00,51.5,49.3,30.23,ESE,107,0.0,0.0,92,0.00,CLR,,0.01,WeatherDisplay:10.37,2013-11-05 00:39:00,
2013-11-04 18:44:00,51.5,49.3,30.23,ESE,107,0.0,0.0,92,0.00,CLR,,0.01,WeatherDisplay:10.37,2013-11-05 00:44:00,
2013-11-04 18:49:00,51.5,49.3,30.24,ESE,106,0.0,0.0,92,0.00,CLR,,0.01,WeatherDisplay:10.37,2013-11-05 00:49:00,
2013-11-04 18:54:00,51.4,49.2,30.24,ESE,106,0.0,0.0,92,0.00,CLR,,0.01,WeatherDisplay:10.37,2013-11-05 00:54:00,
2013-11-04 18:59:00,51.4,49.2,30.24,ESE,106,0.0,0.0,92,0.00,CLR,,0.01,WeatherDisplay:10.37,2013-11-05 00:59:00,
2013-11-04 19:04:00,51.4,49.2,30.24,ESE,107,0.0,0.0,92,0.00,CLR,,0.01,WeatherDisplay:10.37,2013-11-05 01:04:00,
2013-11-04 19:09:00,51.4,49.4,30.24,ESE,106,0.0,0.0,93,0.00,CLR,,0.01,WeatherDisplay:10.37,2013-11-05 01:09:00,
2013-11-04 19:14:00,51.4,49.4,30.23,ESE,107,0.0,0.0,93,0.00,CLR,,0.01,WeatherDisplay:10.37,2013-11-05 01:14:00,
2013-11-04 19:19:00,51.4,49.4,30.23,ESE,107,0.0,0.0,93,0.00,CLR,,0.01,WeatherDisplay:10.37,2013-11-05 01:19:00,
2013-11-04 19:24:00,51.4,49.4,30.22,ESE,106,0.0,0.0,93,0.00,CLR,,0.01,WeatherDisplay:10.37,2013-11-05 01:24:00,
2013-11-04 19:29:00,51.3,49.3,30.22,ESE,107,0.0,0.0,93,0.00,CLR,,0.01,WeatherDisplay:10.37,2013-11-05 01:29:00,
2013-11-04 19:34:00,51.3,49.3,30.23,ESE,107,0.0,0.0,93,0.00,CLR,,0.01,WeatherDisplay:10.37,2013-11-05 01:34:00,
2013-11-04 19:39:00,51.2,49.2,30.23,ESE,107,0.0,0.0,93,0.00,CLR,,0.01,WeatherDisplay:10.37,2013-11-05 01:39:00,
2013-11-04 19:44:00,51.2,49.2,30.23,ESE,107,0.0,0.0,93,0.00,CLR,,0.01,WeatherDisplay:10.37,2013-11-05 01:44:00,
2013-11-04 19:49:00,51.2,49.2,30.23,ESE,106,0.0,0.0,93,0.00,CLR,,0.01,WeatherDisplay:10.37,2013-11-05 01:49:00,
2013-11-04 19:54:00,51.1,49.1,30.23,ESE,107,0.0,0.0,93,0.00,CLR,,0.01,WeatherDisplay:10.37,2013-11-05 01:54:00,
2013-11-04 19:59:00,51.1,49.4,30.23,ESE,106,0.0,0.0,94,0.00,CLR,,0.01,WeatherDisplay:10.37,2013-11-05 01:59:00,
2013-11-04 20:04:00,51.0,49.3,30.23,ESE,106,0.0,0.0,94,0.00,CLR,,0.01,WeatherDisplay:10.37,2013-11-05 02:04:00,
2013-11-04 20:09:00,51.0,49.3,30.22,ESE,107,0.0,0.0,94,0.00,CLR,,0.01,WeatherDisplay:10.37,2013-11-05 02:09:00,
2013-11-04 20:14:00,51.1,49.4,30.22,ESE,107,0.0,0.0,94,0.00,CLR,,0.01,WeatherDisplay:10.37,2013-11-05 02:14:00,
2013-11-04 20:19:00,51.0,49.3,30.21,ESE,106,0.0,0.0,94,0.00,CLR,,0.01,WeatherDisplay:10.37,2013-11-05 02:19:00,
2013-11-04 20:24:00,51.0,49.3,30.22,ESE,107,0.0,0.0,94,0.00,CLR,,0.01,WeatherDisplay:10.37,2013-11-05 02:24:00,
2013-11-04 20:29:00,50.9,49.2,30.23,ESE,106,0.0,0.0,94,0.00,CLR,,0.01,WeatherDisplay:10.37,2013-11-05 02:29:00,
2013-11-04 20:34:00,50.9,49.2,30.23,ESE,106,0.0,0.0,94,0.00,CLR,,0.01,WeatherDisplay:10.37,2013-11-05 02:34:00,
2013-11-04 20:39:00,50.9,49.2,30.23,ESE,107,0.0,0.0,94,0.00,CLR,,0.01,WeatherDisplay:10.37,2013-11-05 02:39:00,
2013-11-04 20:44:00,50.8,49.1,30.23,ESE,106,0.0,0.0,94,0.00,CLR,,0.01,WeatherDisplay:10.37,2013-11-05 02:44:00,
2013-11-04 20:49:00,50.8,49.1,30.22,ESE,106,0.0,0.0,94,0.00,CLR,,0.01,WeatherDisplay:10.37,2013-11-05 02:49:00,
2013-11-04 20:54:00,50.9,49.2,30.22,ESE,106,0.0,0.0,94,0.00,CLR,,0.01,WeatherDisplay:10.37,2013-11-05 02:54:00,
2013-11-04 20:59:00,50.8,49.1,30.21,ESE,106,0.0,0.0,94,0.00,CLR,,0.01,WeatherDisplay:10.37,2013-11-05 02:59:00,
2013-11-04 21:04:00,50.8,49.1,30.22,ESE,106,0.0,0.0,94,0.00,CLR,,0.01,WeatherDisplay:10.37,2013-11-05 03:04:00,
2013-11-04 21:09:00,50.8,49.1,30.22,ESE,107,0.0,0.0,94,0.00,CLR,,0.01,WeatherDisplay:10.37,2013-11-05 03:09:00,
2013-11-04 21:14:00,50.7,49.0,30.22,ESE,106,0.0,0.0,94,0.00,CLR,,0.01,WeatherDisplay:10.37,2013-11-05 03:14:00,
2013-11-04 21:19:00,50.7,49.0,30.22,ESE,106,0.0,0.0,94,0.00,CLR,,0.01,WeatherDisplay:10.37,2013-11-05 03:19:00,
2013-11-04 21:24:00,50.7,49.0,30.22,ESE,107,0.0,0.0,94,0.00,CLR,,0.01,WeatherDisplay:10.37,2013-11-05 03:24:00,
2013-11-04 21:29:00,50.7,49.0,30.22,ESE,107,0.0,0.0,94,0.00,CLR,,0.01,WeatherDisplay:10.37,2013-11-05 03:29:00,
2013-11-04 21:35:00,50.6,49.2,30.22,ESE,107,0.0,0.0,95,0.00,CLR,,0.01,WeatherDisplay:10.37,2013-11-05 03:35:00,
2013-11-04 21:40:00,50.6,49.2,30.23,ESE,106,0.0,0.0,95,0.00,CLR,,0.01,WeatherDisplay:10.37,2013-11-05 03:40:00,
2013-11-04 21:45:00,50.6,49.2,30.23,ESE,107,0.0,0.0,95,0.00,CLR,,0.01,WeatherDisplay:10.37,2013-11-05 03:45:00,
2013-11-04 21:50:00,50.5,49.1,30.23,ESE,107,0.0,0.0,95,0.00,CLR,,0.01,WeatherDisplay:10.37,2013-11-05 03:50:00,
2013-11-04 21:55:00,50.5,49.1,30.23,ESE,107,0.0,0.0,95,0.00,CLR,,0.01,WeatherDisplay:10.37,2013-11-05 03:55:00,
2013-11-04 22:00:00,50.5,49.1,30.23,ESE,106,0.0,0.0,95,0.00,CLR,,0.01,WeatherDisplay:10.37,2013-11-05 04:00:00,
2013-11-04 22:05:00,50.5,49.1,30.22,ESE,107,0.0,0.0,95,0.00,CLR,,0.01,WeatherDisplay:10.37,2013-11-05 04:05:00,
2013-11-04 22:10:00,50.5,49.1,30.23,ESE,106,0.0,0.0,95,0.00,CLR,,0.01,WeatherDisplay:10.37,2013-11-05 04:10:00,
2013-11-04 22:15:00,50.4,48.7,30.23,ESE,106,0.0,0.0,94,0.00,CLR,,0.01,WeatherDisplay:10.37,2013-11-05 04:15:00,
2013-11-04 22:20:00,50.4,48.7,30.22,ESE,106,0.0,0.0,94,0.00,CLR,,0.01,WeatherDisplay:10.37,2013-11-05 04:20:00,
2013-11-04 22:25:00,50.4,48.7,30.22,ESE,107,0.0,0.0,94,0.00,CLR,,0.01,WeatherDisplay:10.37,2013-11-05 04:25:00,
2013-11-04 22:30:00,50.4,48.7,30.22,ESE,106,0.0,0.0,94,0.00,CLR,,0.01,WeatherDisplay:10.37,2013-11-05 04:30:00,
2013-11-04 22:35:00,50.4,48.8,30.22,ESE,106,0.0,0.0,94,0.00,CLR,,0.01,WeatherDisplay:10.37,2013-11-05 04:35:00,
2013-11-04 22:40:00,50.4,48.7,30.23,ESE,107,0.0,0.0,94,0.00,CLR,,0.01,WeatherDisplay:10.37,2013-11-05 04:40:00,
2013-11-04 22:45:00,50.4,48.7,30.23,ESE,106,0.0,0.0,94,0.00,CLR,,0.01,WeatherDisplay:10.37,2013-11-05 04:45:00,
2013-11-04 22:50:00,50.4,48.8,30.23,ESE,107,0.0,0.0,94,0.00,CLR,,0.01,WeatherDisplay:10.37,2013-11-05 04:50:00,
2013-11-04 22:55:00,50.4,48.8,30.23,ESE,107,0.0,0.0,94,0.00,CLR,,0.01,WeatherDisplay:10.37,2013-11-05 04:55:00,
2013-11-04 23:00:00,50.5,48.8,30.23,ESE,107,0.0,0.0,94,0.00,CLR,,0.01,WeatherDisplay:10.37,2013-11-05 05:00:00,
2013-11-04 23:01:00,50.6,48.9,30.23,ESE,106,0.0,0.0,94,0.00,CLR,,0.01,WeatherDisplay:10.37,2013-11-05 05:01:00,
2013-11-04 23:02:00,50.6,48.9,30.22,ESE,107,0.0,0.0,94,0.00,CLR,,0.01,WeatherDisplay:10.37,2013-11-05 05:02:00,
2013-11-04 23:07:00,50.6,48.9,30.23,ESE,107,0.0,0.0,94,0.00,CLR,,0.01,WeatherDisplay:10.37,2013-11-05 05:07:00,
2013-11-04 23:12:00,50.6,48.9,30.23,ESE,107,0.0,0.0,94,0.00,CLR,,0.01,WeatherDisplay:10.37,2013-11-05 05:12:00,
2013-11-04 23:17:00,50.6,48.9,30.23,ESE,106,0.0,0.0,94,0.00,CLR,,0.01,WeatherDisplay:10.37,2013-11-05 05:17:00,
2013-11-04 23:22:00,50.6,48.7,30.23,ESE,107,0.0,0.0,93,0.00,CLR,,0.01,WeatherDisplay:10.37,2013-11-05 05:22:00,
2013-11-04 23:27:00,50.6,48.9,30.23,ESE,106,0.0,0.0,94,0.00,CLR,,0.01,WeatherDisplay:10.37,2013-11-05 05:27:00,
2013-11-04 23:32:00,50.7,48.7,30.24,ESE,106,0.0,0.0,93,0.00,CLR,,0.01,WeatherDisplay:10.37,2013-11-05 05:32:00,
2013-11-04 23:37:00,50.7,48.7,30.23,ESE,107,0.0,0.0,93,0.00,CLR,,0.01,WeatherDisplay:10.37,2013-11-05 05:37:00,
2013-11-04 23:42:00,50.8,48.8,30.23,ESE,107,0.0,0.0,93,0.00,CLR,,0.01,WeatherDisplay:10.37,2013-11-05 05:42:00,
2013-11-04 23:47:00,50.8,48.8,30.23,ESE,107,0.0,0.0,93,0.00,CLR,,0.01,WeatherDisplay:10.37,2013-11-05 05:47:00,
2013-11-04 23:52:00,50.7,48.7,30.24,ESE,107,0.0,0.0,93,0.00,CLR,,0.01,WeatherDisplay:10.37,2013-11-05 05:52:00,
2013-11-04 23:57:00,50.6,48.7,30.24,ESE,107,0.0,0.0,93,0.00,CLR,,0.01,WeatherDisplay:10.37,2013-11-05 05:57:00,